EW6790 Weather Reports


time (UTC)temp
C
wind
direction
speed
KPH
gust
KPH
rain 1hr
cm
rain 24hr
cm
rain mn
cm
humidity
%
barometer
mb
20260507093056 2 348 3.2 6.4 0.00 0.00 0.00 68 1013.2
20260507091615 3 90 6.4 11.3 0.00 0.00 0.00 63 1013.1
20260507090055 3 142 8.0 11.3 0.00 0.00 0.00 66 1013.2
20260507084550 2 128 4.8 8.0 0.00 0.00 0.00 69 1013.2
20260507083044 2 130 3.2 8.0 0.00 0.00 0.00 70 1013.4
20260507081543 2 150 1.6 9.7 0.00 0.00 0.00 68 1013.4
20260507080038 2 120 6.4 9.7 0.00 0.00 0.00 67 1013.7
20260507074543 2 124 4.8 9.7 0.00 0.00 0.00 65 1013.9
20260507073014 3 110 1.6 3.2 0.00 0.00 0.00 62 1014.5
20260507071513 2 51 4.8 6.4 0.00 0.00 0.00 62 1014.6
20260507064551 2 72 0.0 1.6 0.00 0.00 0.00 63 1014.7
20260507063035 2 72 1.6 3.2 0.00 0.00 0.00 60 1014.7
20260507061529 3 79 1.6 4.8 0.00 0.00 0.00 60 1014.6
20260507060011 3 110 0.0 3.2 0.00 0.00 0.00 61 1014.7
20260507054509 3 108 3.2 4.8 0.00 0.00 0.00 60 1014.5
20260507053053 3 122 0.0 1.6 0.00 0.00 0.00 61 1014.7
20260507051550 3 122 0.0 1.6 0.00 0.00 0.00 60 1014.8
20260507050039 3 121 1.6 4.8 0.00 0.00 0.00 59 1014.8
20260507044530 3 123 3.2 4.8 0.00 0.00 0.00 57 1014.8
20260507043010 3 96 3.2 4.8 0.00 0.00 0.00 56 1014.9
20260507041508 3 103 4.8 6.4 0.00 0.00 0.00 55 1014.8
20260507040047 4 96 3.2 4.8 0.00 0.00 0.00 55 1014.9
20260507034556 5 94 4.8 6.4 0.00 0.00 0.00 54 1015.0
20260507033041 4 116 4.8 8.0 0.00 0.00 0.00 54 1015.0
20260507031531 5 124 6.4 8.0 0.00 0.00 0.00 54 1015.3
20260507030028 5 97 4.8 4.8 0.00 0.00 0.00 53 1015.4
20260507024545 5 73 3.2 4.8 0.00 0.00 0.00 52 1015.5
20260507023027 6 59 3.2 4.8 0.00 0.00 0.00 52 1015.5
20260507021526 6 58 0.0 0.0 0.00 0.00 0.00 52 1015.4
20260507020026 6 59 0.0 3.2 0.00 0.00 0.00 51 1015.3
20260507014535 5 8 0.0 0.0 0.00 0.00 0.00 53 1015.4
20260507013005 6 8 0.0 0.0 0.00 0.00 0.00 51 1015.2
20260507011505 7 8 0.0 0.0 0.00 0.00 0.00 48 1015.2
20260507010105 8 349 0.0 4.8 0.00 0.00 0.00 46 1015.2
20260507004547 9 341 1.6 8.0 0.00 0.00 0.00 43 1015.2
20260507003029 10 343 6.4 14.5 0.00 0.00 0.00 42 1015.2
20260507001533 10 318 4.8 12.9 0.00 0.00 0.00 40 1015.1
20260507000010 10 25 4.8 14.5 0.00 0.00 0.00 41 1015.2
20260506234508 11 329 3.2 19.3 0.00 0.00 0.00 40 1015.2
20260506233059 11 310 4.8 17.7 0.00 0.00 0.00 40 1015.3
20260506231549 11 288 8.0 20.9 0.00 0.00 0.00 40 1015.4
20260506230030 11 311 3.2 14.5 0.00 0.00 0.00 40 1015.5
20260506224528 11 8 8.0 20.9 0.00 0.00 0.00 40 1015.6
20260506223009 11 293 9.7 22.5 0.00 0.00 0.00 40 1015.6
20260506221506 11 316 3.2 17.7 0.00 0.00 0.00 40 1015.7
20260506220051 10 302 6.4 24.1 0.00 0.00 0.00 42 1015.8
20260506214550 10 311 11.3 27.4 0.00 0.00 0.00 41 1016.0
20260506213027 10 336 6.4 19.3 0.00 0.00 0.00 42 1016.1
20260506211528 10 273 6.4 17.7 0.00 0.00 0.00 43 1016.2
20260506210006 10 9 4.8 16.1 0.00 0.00 0.00 43 1016.5
20260506204505 8 315 8.0 24.1 0.00 0.00 0.00 43 1016.6
20260506203045 9 329 4.8 17.7 0.00 0.00 0.00 43 1016.7
20260506201543 9 314 4.8 22.5 0.00 0.00 0.00 45 1016.8
20260506200022 9 321 6.4 16.1 0.00 0.00 0.00 45 1016.9
20260506194520 8 307 11.3 27.4 0.00 0.00 0.00 45 1017.0
20260506193100 8 316 8.0 16.1 0.00 0.00 0.00 45 1017.1
20260506191559 8 354 6.4 19.3 0.00 0.00 0.00 45 1017.1
20260506190038 8 304 9.7 20.9 0.00 0.00 0.00 47 1017.2
20260506184536 7 328 4.8 14.5 0.00 0.00 0.00 48 1017.3
20260506183017 7 343 9.7 19.3 0.00 0.00 0.00 49 1017.4
20260506181514 7 289 6.4 19.3 0.00 0.00 0.00 49 1017.4
20260506180055 7 323 8.0 20.9 0.00 0.00 0.00 49 1017.5
20260506174600 6 295 4.8 14.5 0.00 0.00 0.00 50 1017.7
20260506173034 6 299 6.4 11.3 0.00 0.00 0.00 50 1017.7
20260506171534 6 314 12.9 24.1 0.00 0.00 0.00 49 1017.7
20260506170020 6 302 8.0 20.9 0.00 0.00 0.00 50 1017.7
20260506164517 6 294 6.4 20.9 0.00 0.00 0.00 51 1017.6
20260506163014 5 295 12.9 20.9 0.00 0.00 0.00 51 1017.7
20260506161511 5 301 8.0 24.1 0.00 0.00 0.00 52 1017.7
20260506160010 5 329 9.7 22.5 0.00 0.00 0.00 52 1017.8
20260506154508 6 305 6.4 25.7 0.00 0.00 0.00 53 1017.6
20260506153007 5 327 3.2 11.3 0.00 0.00 0.00 56 1017.6
20260506151506 5 304 4.8 12.9 0.00 0.00 0.00 54 1017.4
20260506150058 5 310 6.4 19.3 0.00 0.00 0.00 56 1017.5
20260506144602 5 308 4.8 11.3 0.00 0.00 0.00 58 1017.3
20260506143030 5 304 6.4 14.5 0.00 0.00 0.00 58 1017.3
20260506141529 5 301 3.2 12.9 0.00 0.00 0.00 60 1017.4
20260506140011 4 295 4.8 11.3 0.00 0.00 0.00 61 1017.2
20260506134511 4 306 1.6 9.7 0.00 0.00 0.00 61 1017.3
20260506133118 3 262 4.8 9.7 0.00 0.00 0.00 60 1017.2
20260506131551 3 284 0.0 9.7 0.00 0.00 0.00 65 1017.1
20260506130032 3 290 0.0 4.8 0.00 0.00 0.00 66 1017.0
20260506124529 2 304 0.0 3.2 0.00 0.00 0.00 68 1016.8
20260506123009 -17 0.0 0.0 0.00 0.00 0.00 1016.6
20260506121504 -17 0.0 0.0 0.00 0.00 0.00 1016.6
20260506120106 -17 0.0 0.0 0.00 0.00 0.00 1016.4
20260506114538 -17 0.0 0.0 0.00 0.00 0.00 1016.3
20260506113038 -17 0.0 0.0 0.00 0.00 0.00 1015.8
20260506111512 -17 0.0 0.0 0.00 0.00 0.00 1015.8
20260506110009 0 336 0.0 1.6 0.00 0.00 0.00 72 1015.6
20260506104559 1 330 0.0 4.8 0.00 0.00 0.00 71 1015.3
20260506103049 1 341 0.0 4.8 0.00 0.00 0.00 70 1015.2
20260506101534 1 308 0.0 3.2 0.00 0.00 0.00 71 1015.6
20260506100034 1 285 0.0 1.6 0.00 0.00 0.00 71 1015.6
20260506094514 0 285 0.0 3.2 0.00 0.00 0.00 72 1015.5